Find Starlink 3533

NORAD ID: 51715 Int'l Des: 2022-016 Owner: SPXS Country: US Constellation: starlink operational
LEOCIRCULAR

現在のビュー

3D地球を読み込み中...

Starlink 3533について

説明を読み込み中...

次回通過

Passes for default location (London). Set your location on the main map for personalized predictions.

高度履歴

Loading altitude history...

軌道要素

1 51715U 22016B 26158.62459427 .00004715 00000-0 31439-3 0 9991
2 51715 53.1725 285.3575 0001828 92.3360 267.7841 15.08812660238130
Epoch: Jun 7, 2026 • Age: 26 hours

現在のステータス

高度 539.5 km
速度 7.59 km/s
衛星直下点 11.10°N, 62.43°W
打ち上げ日 Feb 21, 2022
運用期間 4.2 years
タイプ internet

技術仕様

分類 Payload
質量 297.00 kg
乾燥質量 275.00 kg
総質量 297.00 kg
長さ 0.20 m
直径 2.80 m
スパン 9.00 m
形状 Box + pan
製造者 SPXS
バスタイプ Starlink
フェーズステータス In Orbit
所有者/国 SPXS/US

Most Searched